SB KEPS @ AMSAT $ORB11133.O Orbital Elements 11133.OSCAR
HR AMSAT ORBITAL ELEMENTS FOR OSCAR SATELLITES FROM WA5QGD FORT WORTH,TX May 13, 2011 Send Subscribe/unsubscribe to KEPS at http://www.amsat.org/mailman/listinfo/keps BID: ORB11133.O TO ALL RADIO AMATEURS BT
Satellite: AO-07 Catalog number: 07530 Epoch time: 11131.60494609 Element set: 0076 Inclination: 101.3927 deg RA of node: 139.5898 deg Eccentricity: 0.0011947 Arg of perigee: 352.4762 deg Mean anomaly: 007.6120 deg Mean motion: 12.53582305 rev/day Decay rate: -2.7e-07 rev/day^2 Epoch rev: 66960 Checksum: 295
Satellite: FO-29 Catalog number: 24278 Epoch time: 11131.96727271 Element set: 0581 Inclination: 098.5414 deg RA of node: 280.9816 deg Eccentricity: 0.0350568 Arg of perigee: 351.2524 deg Mean anomaly: 008.2607 deg Mean motion: 13.52960168 rev/day Decay rate: -3.8e-07 rev/day^2 Epoch rev: 72756 Checksum: 324
Satellite: SO-33 Catalog number: 25509 Epoch time: 11131.26221889 Element set: 0965 Inclination: 031.4343 deg RA of node: 093.1521 deg Eccentricity: 0.0354334 Arg of perigee: 278.6682 deg Mean anomaly: 077.3961 deg Mean motion: 14.28396261 rev/day Decay rate: 4.21e-06 rev/day^2 Epoch rev: 65499 Checksum: 317
Satellite: RS-22 Catalog number: 27939 Epoch time: 11132.80921478 Element set: 250 Inclination: 097.8508 deg RA of node: 348.4916 deg Eccentricity: 0.0014667 Arg of perigee: 095.8825 deg Mean anomaly: 264.4056 deg Mean motion: 14.63577269 rev/day Decay rate: 3.55e-06 rev/day^2 Epoch rev: 40716 Checksum: 339
Satellite: VO-52 Catalog number: 28650 Epoch time: 11131.63690820 Element set: 0792 Inclination: 097.6442 deg RA of node: 176.3977 deg Eccentricity: 0.0025732 Arg of perigee: 282.4674 deg Mean anomaly: 077.3657 deg Mean motion: 14.82046018 rev/day Decay rate: 9.16e-06 rev/day^2 Epoch rev: 32533 Checksum: 322
Satellite: SO-67 Catalog number: 35870 Epoch time: 11132.82225693 Element set: 830 Inclination: 097.2836 deg RA of node: 177.3559 deg Eccentricity: 0.0003405 Arg of perigee: 125.0788 deg Mean anomaly: 353.4457 deg Mean motion: 15.20677605 rev/day Decay rate: 2.027e-05 rev/day^2 Epoch rev: 9156 Checksum: 318
Satellite: HO-68 Catalog number: 36122 Epoch time: 11132.74298612 Element set: 365 Inclination: 100.4169 deg RA of node: 194.0851 deg Eccentricity: 0.0007149 Arg of perigee: 306.8565 deg Mean anomaly: 053.1899 deg Mean motion: 13.16286034 rev/day Decay rate: -4.5e-07 rev/day^2 Epoch rev: 6757 Checksum: 307
/EX SB KEPS @ AMSAT $ORB11133.D Orbital Elements 11133.MICROS
HR AMSAT ORBITAL ELEMENTS FOR THE MICROSATS FROM WA5QGD FORT WORTH,TX May 13, 2011 Send Subscribe/unsubscribe to KEPS at http://www.amsat.org/mailman/listinfo/keps BID: ORB11133.D TO ALL RADIO AMATEURS BT
Satellite: UO-11 Catalog number: 14781 Epoch time: 11132.71141300 Element set: 546 Inclination: 098.0060 deg RA of node: 189.5271 deg Eccentricity: 0.0007986 Arg of perigee: 252.5378 deg Mean anomaly: 107.4958 deg Mean motion: 14.79962320 rev/day Decay rate: 2.24e-06 rev/day^2 Epoch rev: 46054 Checksum: 295
Satellite: AO-16 Catalog number: 20439 Epoch time: 11132.45490121 Element set: 185 Inclination: 098.3814 deg RA of node: 083.2726 deg Eccentricity: 0.0010023 Arg of perigee: 271.6670 deg Mean anomaly: 088.3365 deg Mean motion: 14.31918157 rev/day Decay rate: 1.20e-06 rev/day^2 Epoch rev: 11250 Checksum: 264
Satellite: LO-19 Catalog number: 20442 Epoch time: 11132.88932055 Element set: 98 Inclination: 098.3437 deg RA of node: 088.1804 deg Eccentricity: 0.0010892 Arg of perigee: 262.2555 deg Mean anomaly: 097.7387 deg Mean motion: 14.32144362 rev/day Decay rate: 1.23e-06 rev/day^2 Epoch rev: 11274 Checksum: 299
Satellite: AO-27 Catalog number: 22825 Epoch time: 11132.86937185 Element set: 815 Inclination: 098.5292 deg RA of node: 078.0553 deg Eccentricity: 0.0009046 Arg of perigee: 024.5592 deg Mean anomaly: 335.6010 deg Mean motion: 14.29345719 rev/day Decay rate: 1.16e-06 rev/day^2 Epoch rev: 91914 Checksum: 311
Satellite: IO-26 Catalog number: 22826 Epoch time: 11132.87528532 Element set: 558 Inclination: 098.5236 deg RA of node: 078.5473 deg Eccentricity: 0.0009573 Arg of perigee: 018.5505 deg Mean anomaly: 341.6021 deg Mean motion: 14.29607403 rev/day Decay rate: 1.06e-06 rev/day^2 Epoch rev: 91926 Checksum: 306
Satellite: GO-32 Catalog number: 25397 Epoch time: 11132.40865206 Element set: 477 Inclination: 098.3246 deg RA of node: 126.8875 deg Eccentricity: 0.0001972 Arg of perigee: 049.1244 deg Mean anomaly: 311.0112 deg Mean motion: 14.23206669 rev/day Decay rate: -1.13e-06 rev/day^2 Epoch rev: 66687 Checksum: 297
Satellite: NO-44 Catalog number: 26931 Epoch time: 11132.22286133 Element set: 749 Inclination: 067.0521 deg RA of node: 076.1957 deg Eccentricity: 0.0007145 Arg of perigee: 263.3725 deg Mean anomaly: 096.6584 deg Mean motion: 14.29656203 rev/day Decay rate: 4.1e-07 rev/day^2 Epoch rev: 50178 Checksum: 298
Satellite: SO-50 Catalog number: 27607 Epoch time: 11132.32371735 Element set: 463 Inclination: 064.5579 deg RA of node: 076.6520 deg Eccentricity: 0.0068953 Arg of perigee: 329.1930 deg Mean anomaly: 030.5135 deg Mean motion: 14.71734181 rev/day Decay rate: 5.64e-06 rev/day^2 Epoch rev: 45081 Checksum: 296
Satellite: CO-55 Catalog number: 27844 Epoch time: 11132.05035857 Element set: 107 Inclination: 098.7059 deg RA of node: 141.2766 deg Eccentricity: 0.0009247 Arg of perigee: 307.4425 deg Mean anomaly: 052.5909 deg Mean motion: 14.20805107 rev/day Decay rate: 1.73e-06 rev/day^2 Epoch rev: 40778 Checksum: 301
Satellite: CO-57 Catalog number: 27848 Epoch time: 11131.98816547 Element set: 56 Inclination: 098.7126 deg RA of node: 140.3927 deg Eccentricity: 0.0009134 Arg of perigee: 312.2325 deg Mean anomaly: 047.8082 deg Mean motion: 14.20585479 rev/day Decay rate: 1.59e-06 rev/day^2 Epoch rev: 40772 Checksum: 320
Satellite: AO-51 Catalog number: 28375 Epoch time: 11131.44204252 Element set: 0967 Inclination: 098.0955 deg RA of node: 111.8265 deg Eccentricity: 0.0083143 Arg of perigee: 181.0017 deg Mean anomaly: 179.1020 deg Mean motion: 14.40753575 rev/day Decay rate: 1.11e-06 rev/day^2 Epoch rev: 36077 Checksum: 277
Satellite: CP3 Catalog number: 31129 Epoch time: 11131.63820934 Element set: 865 Inclination: 097.8999 deg RA of node: 157.9596 deg Eccentricity: 0.0101213 Arg of perigee: 294.9288 deg Mean anomaly: 064.1411 deg Mean motion: 14.52468230 rev/day Decay rate: 8.9e-07 rev/day^2 Epoch rev: 21553 Checksum: 318
Satellite: CO-65 Catalog number: 32785 Epoch time: 11132.29380413 Element set: 987 Inclination: 097.8511 deg RA of node: 196.8694 deg Eccentricity: 0.0013633 Arg of perigee: 294.7176 deg Mean anomaly: 065.2575 deg Mean motion: 14.81977771 rev/day Decay rate: 1.036e-05 rev/day^2 Epoch rev: 16422 Checksum: 340
Satellite: KKS-1 Catalog number: 33493 Epoch time: 11132.70616376 Element set: 571 Inclination: 098.1201 deg RA of node: 260.8115 deg Eccentricity: 0.0020445 Arg of perigee: 152.9683 deg Mean anomaly: 207.2604 deg Mean motion: 14.81647589 rev/day Decay rate: 1.854e-05 rev/day^2 Epoch rev: 12426 Checksum: 289
Satellite: SOHLA-1 Catalog number: 33496 Epoch time: 11131.89660603 Element set: 0410 Inclination: 098.0770 deg RA of node: 242.1018 deg Eccentricity: 0.0005727 Arg of perigee: 234.4328 deg Mean anomaly: 125.6339 deg Mean motion: 14.69609502 rev/day Decay rate: 2.17e-06 rev/day^2 Epoch rev: 12315 Checksum: 275
Satellite: TISAT-1 Catalog number: 36799 Epoch time: 11132.72313251 Element set: 846 Inclination: 098.1031 deg RA of node: 200.6169 deg Eccentricity: 0.0016060 Arg of perigee: 036.4025 deg Mean anomaly: 323.8258 deg Mean motion: 14.80522782 rev/day Decay rate: 1.108e-05 rev/day^2 Epoch rev: 4506 Checksum: 268
Satellite: STUDSAT Catalog number: 36801 Epoch time: 11132.80008139 Element set: 182 Inclination: 098.1091 deg RA of node: 200.5502 deg Eccentricity: 0.0014273 Arg of perigee: 024.4893 deg Mean anomaly: 335.6991 deg Mean motion: 14.80534621 rev/day Decay rate: 3.092e-05 rev/day^2 Epoch rev: 4506 Checksum: 262
Satellite: RAX Catalog number: 37223 Epoch time: 11089.46431449 Element set: 0122 Inclination: 071.9716 deg RA of node: 212.4675 deg Eccentricity: 0.0019443 Arg of perigee: 068.5267 deg Mean anomaly: 291.7923 deg Mean motion: 14.77296529 rev/day Decay rate: 6.60e-06 rev/day^2 Epoch rev: 01926 Checksum: 313
Satellite: OOREOS Catalog number: 37224 Epoch time: 11076.42207246 Element set: 0109 Inclination: 071.9712 deg RA of node: 241.3960 deg Eccentricity: 0.0017800 Arg of perigee: 096.5373 deg Mean anomaly: 263.7815 deg Mean motion: 14.76929834 rev/day Decay rate: 8.68e-06 rev/day^2 Epoch rev: 01732 Checksum: 300
Satellite: FO-69 Catalog number: 37227 Epoch time: 11132.42264097 Element set: 0027 Inclination: 071.9691 deg RA of node: 118.1246 deg Eccentricity: 0.0017350 Arg of perigee: 342.4039 deg Mean anomaly: 017.6539 deg Mean motion: 14.76576752 rev/day Decay rate: 3.78e-06 rev/day^2 Epoch rev: 00404 Checksum: 301
Satellite: NANOSALD Catalog number: 37361 Epoch time: 11129.34459384 Element set: 0181 Inclination: 071.9716 deg RA of node: 122.3227 deg Eccentricity: 0.0038272 Arg of perigee: 269.3119 deg Mean anomaly: 090.3892 deg Mean motion: 14.92615404 rev/day Decay rate: 4.6521e-04 rev/day^2 Epoch rev: 01631 Checksum: 290
Satellite: FO-70 Catalog number: 37380 Epoch time: 11132.43064796 Element set: 0163 Inclination: 071.9718 deg RA of node: 118.1706 deg Eccentricity: 0.0017926 Arg of perigee: 339.7206 deg Mean anomaly: 020.3258 deg Mean motion: 14.76343922 rev/day Decay rate: 3.81e-06 rev/day^2 Epoch rev: 02558 Checksum: 300
/EX SB KEPS @ AMSAT $ORB11133.W Orbital Elements 11133.WEATHER
HR AMSAT ORBITAL ELEMENTS FOR WEATHER SATELLITES FROM WA5QGD FORT WORTH,TX May 13, 2011 Send Subscribe/unsubscribe to KEPS at http://www.amsat.org/mailman/listinfo/keps BID: ORB11133.W TO ALL RADIO AMATEURS BT
